This is the latest recevied weather packets stored in our database for station/object KC5DAQ-22. If no packets are shown the sender has not sent any weather packets the latest 10 day(s).
| Time | Temp. | Humidity | Pressure | Rain* | Wind** | Luminosity | Snow |
|---|---|---|---|---|---|---|---|
| 1777678592 | 15° C | 95% | 1009.5 hPa | 2.79 mm | - | 9 W/m² | - |
| 1777678531 | 15° C | 95% | 1009.6 hPa | 2.79 mm | - | 11 W/m² | - |
| 1777678471 | 15° C | 95% | 1009.6 hPa | 2.79 mm | - | 12 W/m² | - |
| 1777678411 | 15° C | 95% | 1009.5 hPa | 2.79 mm | - | 14 W/m² | - |
| 1777678352 | 15° C | 95% | 1009.4 hPa | 2.54 mm | - | 16 W/m² | - |
| 1777678292 | 15° C | 95% | 1009.4 hPa | 2.54 mm | - | 19 W/m² | - |
| 1777678231 | 15° C | 95% | 1009.3 hPa | 2.54 mm | - | 21 W/m² | - |
| 1777678174 | 15° C | 95% | 1009.2 hPa | 2.29 mm | - | 26 W/m² | - |
| 1777678112 | 15° C | 95% | 1009.4 hPa | 2.29 mm | - | 44 W/m² | - |
| 1777678052 | 15° C | 95% | 1009.5 hPa | 1.27 mm | - | 44 W/m² | - |
| 1777677992 | 15° C | 95% | 1009.5 hPa | 1.27 mm | - | 44 W/m² | - |
| 1777677933 | 15° C | 95% | 1009.5 hPa | 1.27 mm | - | 44 W/m² | - |
| 1777677873 | 15° C | 95% | 1009.6 hPa | 1.27 mm | - | 44 W/m² | - |
| 1777677812 | 15° C | 95% | 1009.6 hPa | 1.02 mm | - | 48 W/m² | - |
| 1777677753 | 15° C | 95% | 1009.8 hPa | 1.02 mm | - | 49 W/m² | - |
| 1777677691 | 15.56° C | 95% | 1009.9 hPa | 0.76 mm | - | 49 W/m² | - |
| 1777677631 | 15.56° C | 95% | 1010.1 hPa | 0.76 mm | - | 41 W/m² | - |
| 1777677572 | 15.56° C | 95% | 1010.2 hPa | 0.51 mm | - | 35 W/m² | - |
| 1777677511 | 15.56° C | 95% | 1010.4 hPa | 0.51 mm | - | 32 W/m² | - |
| 1777677452 | 15.56° C | 95% | 1010.5 hPa | 0.51 mm | - | 25 W/m² | - |
| 1777677393 | 15.56° C | 95% | 1010.5 hPa | 0.51 mm | - | 23 W/m² | - |
| 1777677332 | 15.56° C | 95% | 1010.6 hPa | 0.51 mm | - | 19 W/m² | - |
| 1777677271 | 15.56° C | 95% | 1010.6 hPa | 0.25 mm | - | 19 W/m² | - |
| 1777677207 | 15.56° C | 95% | 1010.6 hPa | 0.25 mm | - | 18 W/m² | - |
| 1777677142 | 15° C | 95% | 1010.5 hPa | 0.25 mm | - | 14 W/m² | - |
* Rain latest hour (hover to see other rain measurements)
** Current wind speed in m/s (hover to see current wind gust speed)